Location: *
(32.3758°S, 63.1185°E)
Time: 00:16:00
(UTC+00:00)

USA 267 - Pass Details

Date: 02 June 2023
Orbit: 1102 x 1105 km, 123.0° (Epoch: 29 September)

Event Time Altitude Azimuth Distance (km) Brightness Sun altitude
Rises 13:14:36 0° 44° (NE) 3,914 5.9 -5.6°
Reaches altitude 10° 13:17:03 10° 44° (NE) 2,962 5.3 -6.1°
Maximum altitude 13:23:37 88° 132° (SE) 1,116 3.3 -7.3°
Drops below altitude 10° 13:30:15 10° 221° (SW) 2,987 5.8 -8.6°
Sets 13:32:45 0° 221° (SW) 3,949 6.5 -9.1°
